Find Hai Yang 2-03

NORAD ID: 46469 Int'l Des: 2020-066 Owner: GYZ/CASC Country: CN operational
LEOCIRCULAR

当前视图

正在加载3D地球...

关于 Hai Yang 2-03

正在加载描述...

即将过境

Passes for default location (London). Set your location on the main map for personalized predictions.

高度历史

Loading altitude history...

两行轨道根数

1 46469U 20066A 26150.23668325 -.00000002 00000-0 72370-4 0 9998
2 46469 65.9978 259.9755 0009602 238.4699 121.5432 13.83373474287014
Epoch: May 30, 2026 • Age: 7 hours

当前状态

高度 967.8 km
速度 7.37 km/s
星下点 58.19°N, 137.51°W
发射日期 Sep 21, 2020
运行时间 5.6 years
类型 other

技术详情

分类 Payload
质量 1500.00 kg
干质量 1500.00 kg
总质量 1500.00 kg
长度 1.00 m
直径 1.00 m
跨度 4.00 m
形状 Box + 2 Pan
制造商 SISE
平台类型 CAST-968
阶段状态 In Orbit
所有者/国家 GYZ/CASC/CN

Most Searched